N1SU-13 Weather Reports


Display with metric or nautical units.
time (UTC)temp
F
wind
direction
speed
MPH
gust
MPH
rain 1hr
in
rain 24hr
in
rain mn
in
humidity
%
barometer
mb
20260903072251 52 0.0 0.0 0.00 0.24 0.00 86 1006.7
20260903071259 52 0.0 0.0 0.00 0.24 0.00 84 1006.7
20260903070137 52 0.0 0.0 0.00 0.24 0.00 84 1006.6
20260903064956 52 0.0 0.0 0.00 0.24 0.00 85 1006.8
20260903063850 52 0.0 0.0 0.00 0.24 0.00 86 1006.7
20260903062904 52 0.0 0.0 0.00 0.24 0.00 85 1006.6
20260903061805 52 0.0 0.0 0.00 0.24 0.00 86 1006.6
20260903060658 52 0.0 0.0 0.00 0.24 0.00 86 1006.5
20260903055741 52 0.0 0.0 0.00 0.24 0.00 86 1006.5
20260903054802 52 0.0 0.0 0.00 0.24 0.00 86 1006.6
20260903053757 52 0.0 0.0 0.00 0.24 0.00 86 1006.7
20260903052750 52 0.0 0.0 0.00 0.24 0.00 87 1006.7
20260903051725 53 0.0 0.0 0.00 0.24 0.00 87 1006.5
20260903050753 53 0.0 0.0 0.00 0.24 0.00 87 1006.6
20260903045821 53 0.0 0.0 0.00 0.24 0.00 87 1006.4
20260903044813 53 0.0 0.0 0.00 0.24 0.00 87 1006.5
20260903043804 53 0.0 0.0 0.00 0.24 0.00 86 1006.5
20260903042820 53 0.0 0.0 0.00 0.24 0.00 87 1006.4
20260903041657 53 0.0 0.0 0.00 0.24 0.00 88 1006.3
20260903040616 53 0.0 0.0 0.00 0.24 0.00 89 1006.3
20260903035544 54 0.0 0.0 0.00 0.24 0.00 89 1006.1
20260903035152 58 0.0 0.0 0.03 0.14 0.00 84 1002.8
20260903034452 54 0.0 0.0 0.00 0.24 0.00 89 1005.9
20260903033519 54 0.0 0.0 0.00 0.25 0.00 89 1005.7
20260903032452 54 0.0 0.0 0.00 0.25 0.00 90 1005.8
20260903031511 55 0.0 0.0 0.00 0.25 0.00 90 1005.6
20260903030511 55 0.0 0.0 0.00 0.25 0.00 89 1005.4
20260903025445 55 0.0 0.0 0.00 0.25 0.00 88 1005.2
20260903024504 56 0.0 0.0 0.00 0.25 0.00 87 1005.1
20260903023322 57 0.0 0.0 0.00 0.25 0.00 86 1005.2
20260903022223 57 0.0 0.0 0.00 0.25 0.00 85 1004.8
20260903021619 58 0.0 0.0 0.00 0.25 0.00 84 1004.7
20260903021200 58 0.0 0.0 0.00 0.25 0.00 83 1004.7
20260903020220 57 0.0 0.0 0.07 0.25 0.00 83 1004.5
20260903015151 56 0.0 0.0 0.10 0.25 0.00 87 1004.6
20260903014051 56 0.0 0.0 0.10 0.25 0.00 88 1004.4
20260903013031 56 0.0 0.0 0.10 0.25 0.00 89 1004.3
20260903012056 56 0.0 0.0 0.10 0.25 0.00 90 1004.0
20260903011130 56 0.0 0.0 0.10 0.24 0.00 91 1003.9
20260903010104 57 0.0 0.0 0.01 0.15 0.00 91 1004.0
20260903004922 58 0.0 0.0 0.00 0.14 0.00 88 1003.4
20260903003750 58 0.0 0.0 0.00 0.14 0.00 82 1002.8
20260903002807 58 0.0 0.0 0.00 0.14 0.00 82 1002.9
20260903001757 58 0.0 0.0 0.01 0.14 0.00 86 1002.8
20260903000632 58 0.0 0.0 0.03 0.14 0.00 84 1002.8
20260902235528 58 0.0 0.0 0.03 0.14 0.00 86 1002.9
20260902234532 58 0.0 0.0 0.04 0.14 0.00 87 1003.1
20260902233351 58 0.0 0.0 0.06 0.14 0.00 86 1003.2
20260902232256 58 0.0 0.0 0.06 0.13 0.00 88 1003.7
20260902231321 59 0.0 0.0 0.04 0.10 0.00 86 1003.6
20260902230216 59 0.0 0.0 0.04 0.10 0.00 86 1003.4
20260902225245 59 0.0 0.0 0.04 0.10 0.00 85 1003.1
20260902224228 59 0.0 0.0 0.05 0.09 0.00 84 1003.1
20260902223223 60 0.0 0.0 0.03 0.07 0.00 83 1003.3
20260902222142 60 0.0 0.0 0.03 0.07 0.00 83 1003.2
20260902221040 60 0.0 0.0 0.03 0.06 0.00 83 1003.1
20260902220039 61 0.0 0.0 0.02 0.05 0.00 81 1003.1
20260902214943 61 0.0 0.0 0.02 0.05 0.00 79 1002.8
20260902214023 62 0.0 0.0 0.00 0.03 0.00 78 1002.7
20260902212857 62 0.0 0.0 0.00 0.03 0.00 75 1003.0
20260902211828 62 0.0 0.0 0.00 0.03 0.00 74 1003.0
20260902210745 63 0.0 0.0 0.00 0.03 0.00 71 1002.8
20260902205824 64 0.0 0.0 0.00 0.03 0.00 70 1002.9
20260902204721 64 0.0 0.0 0.00 0.03 0.00 69 1002.9
20260902203742 65 0.0 0.0 0.00 0.03 0.00 66 1002.6
20260902202757 65 0.0 0.0 0.00 0.03 0.00 64 1002.5
20260902201745 66 0.0 0.0 0.00 0.03 0.00 63 1002.8
20260902200738 66 0.0 0.0 0.00 0.03 0.00 61 1002.8
20260902195638 67 0.0 0.0 0.00 0.03 0.00 59 1002.7
20260902194647 67 0.0 0.0 0.00 0.03 0.00 60 1002.8
20260902193625 67 0.0 0.0 0.00 0.03 0.00 60 1002.9
20260902192543 67 0.0 0.0 0.00 0.03 0.00 59 1002.9
20260902191429 66 0.0 0.0 0.00 0.03 0.00 60 1003.0
20260902190510 66 0.0 0.0 0.00 0.03 0.00 60 1003.2
20260902185418 65 0.0 0.0 0.00 0.03 0.00 63 1003.4
20260902184242 64 0.0 0.0 0.00 0.03 0.00 63 1003.5
20260902183107 64 0.0 0.0 0.00 0.03 0.00 63 1003.7
20260902181932 64 0.0 0.0 0.00 0.03 0.00 63 1003.8
20260902180757 64 0.0 0.0 0.00 0.03 0.00 64 1004.0
20260902175817 64 0.0 0.0 0.00 0.03 0.00 64 1004.1
20260902174840 64 0.0 0.0 0.00 0.03 0.00 63 1004.2
20260902173917 64 0.0 0.0 0.00 0.03 0.00 66 1004.3
20260902172917 63 0.0 0.0 0.00 0.03 0.00 68 1004.4
20260902171852 62 0.0 0.0 0.00 0.03 0.00 69 1004.6
20260902170816 62 0.0 0.0 0.00 0.03 0.00 71 1004.9
20260902165811 61 0.0 0.0 0.00 0.03 0.00 71 1004.7
20260902164730 61 0.0 0.0 0.00 0.03 0.00 71 1004.9
20260902163656 61 0.0 0.0 0.00 0.03 0.00 71 1004.9
20260902162621 60 0.0 0.0 0.00 0.03 0.00 74 1005.1
20260902161608 59 0.0 0.0 0.00 0.03 0.00 74 1005.2
20260902160648 58 0.0 0.0 0.00 0.03 0.00 75 1005.2
20260902155529 58 0.0 0.0 0.00 0.03 0.00 77 1005.4
20260902154521 57 0.0 0.0 0.00 0.03 0.00 82 1005.6
20260902153456 56 0.0 0.0 0.00 0.03 0.00 84 1005.8
20260902152352 56 0.0 0.0 0.00 0.03 0.00 85 1005.7
20260902151241 56 0.0 0.0 0.00 0.03 0.00 85 1005.9
20260902150115 55 0.0 0.0 0.00 0.03 0.00 88 1006.2
20260902144957 55 0.0 0.0 0.00 0.03 0.00 89 1006.4
20260902144021 55 0.0 0.0 0.00 0.03 0.00 88 1006.5
20260902142948 55 0.0 0.0 0.00 0.03 0.00 89 1006.7
20260902142001 54 0.0 0.0 0.00 0.03 0.00 90 1006.7
20260902140958 54 0.0 0.0 0.00 0.03 0.00 90 1006.6
20260902140012 54 0.0 0.0 0.00 0.03 0.00 90 1006.7
20260902134942 54 0.0 0.0 0.00 0.03 0.00 90 1006.7
20260902133953 54 0.0 0.0 0.00 0.03 0.00 89 1006.7
20260902132956 54 0.0 0.0 0.00 0.03 0.00 89 1006.7
20260902131830 55 0.0 0.0 0.00 0.03 0.00 88 1006.8
20260902130857 55 0.0 0.0 0.00 0.03 0.00 88 1006.8
20260902125827 55 0.0 0.0 0.00 0.03 0.00 88 1006.8
20260902124703 55 0.0 0.0 0.00 0.03 0.00 88 1007.0
20260902123626 55 0.0 0.0 0.00 0.03 0.00 88 1007.0
20260902122554 55 0.0 0.0 0.00 0.03 0.00 89 1007.0
20260902121507 55 0.0 0.0 0.00 0.03 0.00 89 1007.0
20260902120426 54 0.0 0.0 0.00 0.03 0.00 90 1007.2
20260902115249 54 0.0 0.0 0.00 0.03 0.00 90 1007.4
20260902114208 54 0.0 0.0 0.00 0.03 0.00 90 1007.3
20260902113042 54 0.0 0.0 0.00 0.03 0.00 91 1007.2
20260902112040 55 0.0 0.0 0.00 0.03 0.00 90 1007.4
20260902110946 55 0.0 0.0 0.00 0.03 0.00 91 1007.5
20260902105958 55 0.0 0.0 0.00 0.03 0.00 91 1007.6
20260902105001 55 0.0 0.0 0.00 0.03 0.00 90 1007.6
20260902103827 55 0.0 0.0 0.00 0.03 0.00 90 1007.8
20260902102658 55 0.0 0.0 0.00 0.03 0.00 91 1007.8
20260902101546 55 0.0 0.0 0.00 0.03 0.00 91 1007.9
20260902100501 56 0.0 0.0 0.00 0.03 0.00 92 1007.9
20260902095457 56 0.0 0.0 0.02 0.03 0.00 93 1007.9
20260902094533 56 0.0 0.0 0.02 0.03 0.00 94 1008.0
20260902093433 56 0.0 0.0 0.02 0.03 0.00 93 1008.1
20260902092409 56 0.0 0.0 0.01 0.02 0.00 93 1008.2
20260902091422 56 0.0 0.0 0.01 0.02 0.00 93 1008.0
20260902090416 56 0.0 0.0 0.01 0.02 0.00 91 1008.0
20260902085343 56 0.0 0.0 0.00 0.00 0.00 90 1008.2
20260902084327 56 0.0 0.0 0.00 0.00 0.00 91 1008.2
20260902083401 56 0.0 0.0 0.00 0.00 0.00 91 1008.2
20260902082432 56 0.0 0.0 0.00 0.00 0.00 90 1008.4
20260902081403 56 0.0 0.0 0.00 0.00 0.00 91 1008.6
20260902080223 56 0.0 0.0 0.00 0.00 0.00 91 1008.6
20260902075255 56 0.0 0.0 0.00 0.00 0.00 91 1008.6
20260902074202 57 0.0 0.0 0.00 0.00 0.00 92 1008.8
20260902073207 57 0.0 0.0 0.00 0.00 0.00 91 1008.7